Theta_e
274 273 272 272 272 271 271 271 271 272 272 272 272 272 272 272 273 273 273 273 273 273 274 274 274 274 274 275 276 278 281 283 286 291 294 296 295 295 297 300 302 319 315
272 272 271 271 270 270 270 270 271 270 271 271 271 271 271 271 271 270 271 271 271 270 271 272 272 274 273 275 276 280 282 283 288 288 292 293 293 296 297 298 297 316 318
271 270 269 269 269 269 269 269 270 270 270 270 270 269 269 269 269 269 269 270 270 271 271 271 271 272 272 273 274 277 282 284 290 290 290 293 292 294 293 296 299 305 315
269 268 268 268 269 268 269 269 269 269 268 268 268 268 268 268 268 268 269 269 270 270 271 272 272 272 272 272 274 275 280 281 286 289 288 289 292 293 293 293 292 310 310
268 267 267 268 268 268 268 268 268 268 267 267 267 266 267 267 268 268 270 271 271 272 273 273 274 274 274 275 274 276 279 281 282 287 287 287 288 289 291 294 294 307 307
267 267 267 267 267 266 266 266 266 266 266 265 265 266 266 267 269 272 272 271 272 272 272 273 275 275 276 277 278 279 280 279 280 284 286 285 286 287 290 291 294 302 302
268 267 265 265 264 265 264 264 264 264 264 264 265 265 264 265 270 272 273 272 271 272 272 273 274 276 276 276 277 279 280 284 285 283 285 286 286 287 288 288 291 298 305
266 264 264 264 263 263 262 262 262 263 263 263 263 263 264 266 270 271 273 272 272 272 273 274 275 275 276 276 275 275 277 281 284 286 287 288 289 289 289 288 288 302 306
264 264 263 263 261 261 259 261 262 262 262 261 263 263 263 263 269 272 273 271 270 271 273 275 275 275 278 279 276 275 276 278 284 287 288 289 290 290 290 287 283 298 298
263 263 262 262 259 258 260 259 261 260 261 263 263 263 264 264 269 272 273 271 269 270 271 273 275 275 278 280 277 276 275 276 280 282 284 286 288 288 289 287 286 291 299
262 261 261 260 258 258 258 259 259 259 261 260 262 264 266 267 267 271 273 271 270 270 271 272 274 276 278 281 281 277 277 280 281 283 284 285 286 287 288 289 294 288 300
260 259 258 257 256 259 255 257 258 258 258 260 262 265 266 267 268 270 272 274 274 270 270 271 273 276 278 280 281 282 283 282 282 283 282 283 285 286 288 292 297 298 306
257 256 256 257 257 257 255 257 258 259 260 261 264 264 264 266 267 270 272 273 272 270 270 272 274 276 278 278 279 281 282 283 282 283 282 284 286 288 288 293 301 304 304
255 258 259 258 257 257 258 259 257 259 260 264 263 263 264 265 266 269 269 269 270 270 270 270 272 274 276 277 277 280 282 283 284 284 284 286 287 287 286 301 301 301 300
257 258 257 257 254 257 258 257 260 262 265 265 264 265 264 265 267 271 270 268 267 269 266 266 269 271 273 276 276 280 283 284 284 285 285 285 286 285 290 301 300 299 297
258 257 256 256 255 256 256 256 261 264 267 267 268 268 267 270 271 271 270 270 269 269 263 263 264 265 266 268 270 271 277 284 285 285 285 286 285 286 295 298 298 297 297
255 255 255 255 255 254 253 253 252 256 262 264 265 268 269 269 270 270 269 267 267 266 260 262 263 264 265 266 268 269 270 273 274 284 285 286 286 291 292 295 295 296 295
253 253 252 252 251 251 251 251 251 251 251 253 259 264 266 267 268 269 268 263 259 261 261 260 263 264 264 265 267 267 267 269 271 273 282 286 289 291 292 292 294 294 293
253 252 251 249 249 250 250 250 250 250 250 251 253 258 259 264 265 265 265 259 258 258 259 261 262 264 264 265 266 267 266 266 267 269 273 288 291 290 291 292 293 292 292
252 252 250 249 248 249 249 249 249 249 250 250 251 253 259 256 255 256 258 258 258 258 259 260 262 264 265 265 265 267 265 265 266 267 268 288 290 291 291 292 292 291 292
251 251 250 248 247 247 246 246 247 247 247 248 249 251 265 254 254 255 256 257 257 258 260 260 262 262 265 265 265 266 266 265 265 266 267 270 289 289 290 292 291 292 292
251 249 248 247 248 248 246 247 247 246 247 247 248 250 259 253 253 255 255 256 257 259 260 261 262 263 264 265 265 266 266 264 264 264 266 268 273 290 290 290 290 291 290
251 249 249 247 247 247 247 245 246 246 247 246 247 249 250 250 252 254 254 256 257 258 260 261 263 263 264 266 267 266 267 264 264 265 266 267 271 285 289 290 289 289 290
251 251 250 246 246 245 245 244 246 246 246 247 245 246 248 249 250 252 253 255 256 257 260 260 262 262 263 266 267 267 269 267 266 266 266 267 269 283 289 289 289 290 290
249 250 249 247 243 244 244 244 246 242 243 246 246 246 247 249 250 251 252 254 255 256 258 260 262 262 263 267 267 267 269 268 266 266 266 266 267 269 274 285 287 288 289
248 248 246 244 244 241 241 244 243 244 243 246 245 245 246 247 249 250 251 252 253 255 257 259 261 262 263 267 268 268 269 270 267 266 266 265 265 265 267 269 273 282 287
Wind_Speed
5 3 2 4 5 5 7 8 10 12 13 14 15 16 16 17 17 16 18 19 19 19 19 19 21 20 14 14 15 16 15 15 20 13 11 12 11 13 14 14 17 17 17
6 4 3 3 4 6 8 9 10 12 13 14 15 16 17 18 17 18 19 19 19 20 20 21 20 15 19 18 15 19 16 18 17 20 12 11 12 11 11 13 13 13 16
6 3 2 3 5 7 8 9 10 12 13 14 15 16 17 18 18 18 19 19 19 19 20 20 20 20 19 15 17 17 15 12 17 12 12 9 8 10 13 13 13 19 14
6 4 3 4 6 7 8 9 10 12 14 14 14 16 17 18 18 19 20 19 19 19 20 20 20 20 20 19 17 18 16 12 17 8 7 9 9 6 10 9 12 14 14
6 4 4 5 6 6 8 9 10 12 12 13 16 16 17 16 13 18 20 20 21 20 20 20 19 21 29 27 16 17 16 12 13 9 10 9 8 4 8 8 15 17 14
6 5 4 3 5 7 8 10 11 12 13 13 15 17 18 12 23 28 26 19 20 20 19 19 19 22 23 32 34 34 28 16 16 11 8 10 12 8 10 11 11 17 17
6 4 1 3 5 7 8 10 10 12 12 14 15 16 18 19 27 29 30 18 18 19 20 19 18 15 20 19 25 31 30 32 34 20 13 11 11 7 8 13 19 22 20
5 3 0 3 5 7 8 9 11 11 12 14 15 17 17 16 29 30 31 19 17 18 19 20 20 21 21 19 18 19 17 17 19 15 14 10 10 8 11 11 17 22 16
5 3 1 2 5 7 7 9 10 11 13 13 14 16 17 17 29 31 28 17 17 19 18 17 17 21 24 30 20 20 17 18 19 26 28 26 25 23 21 10 14 16 15
6 4 2 1 3 5 7 10 10 10 12 12 15 16 18 17 26 31 27 13 16 15 17 17 23 22 30 31 19 17 16 19 14 14 12 18 21 18 23 15 12 14 22
6 4 1 2 3 5 7 8 8 10 12 12 15 14 14 16 18 30 32 16 14 14 14 14 13 28 30 26 25 16 18 16 19 16 13 11 12 11 11 14 18 14 19
5 4 1 2 3 3 5 7 7 9 11 12 14 12 11 14 22 25 33 31 29 17 16 14 16 29 29 30 21 24 28 28 13 12 12 12 12 11 14 17 17 19 22
6 4 2 2 1 3 4 5 7 8 9 11 11 12 14 13 13 29 30 34 31 20 15 21 33 32 32 25 24 26 22 14 14 12 13 12 11 11 17 21 18 27 25
8 6 3 2 4 3 4 5 5 7 8 10 11 12 13 14 14 15 15 16 21 17 21 16 19 22 26 24 18 17 11 11 12 12 13 8 6 10 14 16 16 17 16
7 7 4 3 3 5 5 4 7 7 10 10 9 11 14 15 16 28 26 17 14 19 17 12 7 8 8 9 8 13 9 10 11 10 8 7 9 10 16 15 15 14 14
8 6 4 3 3 5 6 7 9 12 17 16 20 17 11 24 31 32 32 29 28 29 12 10 10 10 10 10 10 12 11 10 7 7 8 10 11 12 12 12 15 16 18
7 7 5 4 4 3 3 4 9 11 14 15 19 22 26 26 29 31 32 29 28 23 12 12 11 11 11 11 10 10 12 11 12 9 10 10 10 13 9 10 13 16 15
5 9 5 4 3 2 2 2 3 4 8 9 14 20 23 26 28 29 31 22 15 16 13 13 13 13 12 12 11 10 10 10 9 8 10 9 11 8 9 10 13 16 15
6 5 4 4 3 2 2 2 2 3 5 7 9 12 14 25 25 25 26 12 13 14 14 14 13 12 12 12 12 10 11 10 11 10 11 9 9 6 9 11 11 15 18
6 10 6 4 4 3 2 3 4 3 5 5 6 9 9 11 12 14 13 13 13 13 13 14 14 13 13 13 13 12 11 12 12 11 12 6 8 9 9 12 12 12 15
6 6 8 5 4 1 1 3 3 4 4 5 6 8 21 8 9 10 12 12 13 13 14 14 14 14 14 14 15 14 14 11 10 11 10 11 6 9 8 9 11 12 14
7 6 5 5 3 2 2 3 3 3 5 5 6 6 18 7 8 9 11 11 12 12 12 13 13 14 15 16 17 15 15 14 13 12 11 10 10 10 8 9 10 10 11
8 7 6 5 4 3 3 3 2 3 4 5 6 7 7 7 8 9 10 12 12 12 12 13 14 15 15 15 15 16 16 15 13 12 12 10 9 6 9 11 10 10 11
7 7 7 4 3 3 2 1 2 3 4 4 5 6 6 6 7 9 10 11 12 12 12 13 14 19 17 18 17 16 16 16 13 12 13 10 9 8 7 9 10 11 11
7 7 6 5 4 3 1 1 2 3 3 4 5 6 6 6 7 8 9 10 11 12 14 14 13 20 22 24 26 29 28 29 23 22 13 14 14 14 8 2 6 8 11
6 7 5 4 4 2 2 1 2 3 3 4 4 5 6 6 6 7 8 10 11 12 16 12 16 23 24 17 25 31 32 31 27 29 17 15 15 14 11 10 10 1 9
Wind_Direction
154 163 236 277 288 303 294 291 288 291 294 294 296 295 293 290 288 287 282 281 275 275 270 268 266 265 265 262 259 263 266 270 255 251 259 261 262 272 280 275 300 203 197
158 166 224 274 296 294 280 285 288 294 294 297 296 296 296 292 293 290 287 284 281 278 276 274 271 268 264 264 267 265 253 264 269 254 253 253 258 273 279 284 273 221 197
153 157 234 279 275 274 282 289 300 299 298 298 299 298 296 293 295 290 287 285 280 276 275 272 270 269 267 266 262 266 268 266 262 251 258 258 253 257 277 280 265 268 188
152 169 216 255 262 274 294 297 301 301 298 300 299 297 294 294 293 294 291 284 277 271 268 268 267 265 265 263 262 267 271 260 273 244 266 278 249 223 244 278 282 201 177
152 168 216 250 279 294 301 308 305 300 301 305 302 297 292 293 296 298 293 290 285 282 274 267 265 258 258 260 259 258 259 263 279 242 249 263 262 286 268 247 236 242 156
157 182 212 273 300 317 316 308 307 306 309 305 299 301 303 298 302 300 299 291 288 285 282 274 268 265 255 257 262 261 258 256 265 273 240 243 264 255 241 295 238 253 156
163 166 244 312 320 316 307 307 307 308 309 307 309 307 302 299 304 308 306 295 289 282 280 278 275 266 261 257 259 264 262 256 247 254 258 238 238 249 264 267 267 272 168
146 149 100 317 303 308 310 316 316 314 311 312 305 297 294 301 308 309 305 298 292 292 285 277 273 274 263 255 256 257 250 257 243 248 257 243 255 257 246 270 279 248 153
139 126 161 289 300 320 317 314 314 310 313 306 297 297 294 292 301 311 316 307 295 289 284 283 287 287 276 260 258 254 252 255 261 250 247 248 255 261 257 274 271 206 152
145 160 189 311 295 304 308 308 310 308 305 303 299 290 292 294 304 315 314 312 304 298 290 284 282 280 280 266 259 254 249 249 246 247 250 263 263 257 258 233 257 268 155
141 128 107 319 304 288 300 302 305 307 304 299 293 296 301 305 310 310 323 315 304 296 288 285 280 284 283 288 256 241 253 248 253 245 241 237 241 253 269 261 226 215 182
121 105 76 290 290 313 280 300 315 306 303 303 303 314 316 311 309 320 322 319 316 311 299 292 288 290 290 285 270 249 243 247 252 248 242 245 256 259 257 262 207 216 195
124 135 185 259 269 273 265 322 319 309 309 314 321 325 323 323 312 322 321 327 326 313 298 288 285 283 283 285 283 275 263 233 239 236 241 242 248 260 271 275 200 201 178
142 147 144 48 355 345 349 345 313 311 319 319 331 326 325 321 329 328 331 332 327 319 318 304 283 278 267 271 274 263 251 236 244 235 237 244 261 270 272 223 180 174 165
141 127 107 73 13 357 9 319 319 311 318 333 332 326 326 334 334 342 341 339 334 341 344 331 329 300 298 287 297 280 226 238 224 219 234 252 259 262 261 186 170 162 159
134 125 111 93 51 19 347 332 334 343 341 347 346 344 335 341 346 349 352 354 350 1 346 354 352 351 346 335 326 317 312 229 229 231 236 240 247 257 220 177 160 163 164
129 131 117 100 81 44 6 349 329 334 355 354 350 353 346 353 357 359 3 360 357 2 3 348 354 350 344 333 329 327 322 322 318 252 226 233 245 245 177 168 157 165 166
128 118 116 109 97 66 351 331 301 311 325 326 335 342 349 0 1 4 7 358 356 3 0 351 348 351 345 337 332 326 311 301 298 292 281 232 239 216 175 160 163 164 159
138 125 119 108 91 62 341 324 318 316 303 305 321 336 333 357 359 360 4 7 356 350 349 349 345 348 345 340 327 326 322 319 317 303 286 242 205 176 185 167 169 163 159
124 132 117 109 81 44 12 27 4 336 330 316 331 327 331 345 0 350 354 354 352 349 346 340 347 339 350 344 336 336 343 339 336 324 317 237 189 181 180 175 172 166 170
137 125 122 98 92 67 5 32 353 336 317 324 316 317 9 350 345 349 346 346 344 341 341 340 340 342 346 348 350 347 352 339 328 320 317 327 193 179 174 180 172 172 173
130 123 116 106 106 79 26 30 12 339 331 334 326 325 353 345 347 349 341 340 339 337 335 335 344 348 346 353 352 344 352 345 338 329 321 320 317 191 168 172 177 179 173
127 129 120 115 117 119 66 35 4 351 354 328 320 324 336 341 339 345 339 334 336 338 339 341 343 348 346 357 356 348 355 353 338 328 322 317 310 271 180 178 171 176 172
134 127 121 115 117 107 101 63 19 17 350 328 324 313 324 329 333 335 338 333 333 337 341 342 343 345 343 359 359 358 358 2 353 344 343 338 326 289 184 183 178 175 177
141 126 120 133 131 120 132 3 34 13 339 316 325 320 320 328 335 338 336 334 333 335 339 341 343 343 348 357 5 5 1 13 9 5 2 5 3 360 3 72 172 184 181
121 116 123 129 127 148 162 26 344 354 325 311 316 318 317 324 326 332 334 335 335 333 335 336 338 343 348 352 6 8 8 13 14 14 11 17 19 16 14 20 24 61 187